GFSSGP_925_temp_021.txt.gz
Temp
23 24 25 27 28 29 30 30 30 29 30 29 29 29 29 29 29 28 23 24 23 23 22 20 20 19 19 18 18 19 19 19 19 19 18 18 18 19 18 18 18 18 17 17 17 16 16 16 17
24 25 26 29 28 30 31 30 29 29 29 28 28 28 29 29 30 29 27 23 22 23 22 19 20 19 19 19 18 19 19 18 18 19 18 18 18 18 17 17 17 17 17 17 17 17 18 18 18
23 24 28 29 29 30 29 30 30 30 29 28 29 28 29 30 30 29 24 22 22 22 22 20 19 19 19 19 19 19 19 19 19 19 18 18 18 17 17 17 17 16 16 17 18 18 18 18 18
26 28 29 28 29 30 29 30 30 30 29 28 29 29 30 29 28 26 22 22 22 22 21 20 19 19 19 19 19 19 19 19 19 18 18 17 17 17 16 15 16 16 15 17 17 17 17 17 18
26 29 28 28 29 30 30 30 29 29 29 29 28 30 30 28 25 23 22 22 22 22 21 20 19 19 19 19 19 19 19 19 18 18 17 17 18 17 15 15 15 15 15 16 16 16 16 17 18
28 28 28 29 30 30 30 29 29 29 29 29 28 29 30 26 25 24 23 22 22 22 21 20 19 18 18 19 19 19 19 19 18 18 17 17 17 16 15 14 14 14 14 14 14 14 16 17 18
27 28 29 28 29 29 29 28 29 30 30 30 29 28 31 29 25 23 22 23 22 22 20 19 18 18 18 18 18 18 18 19 18 18 18 18 17 15 14 14 14 13 14 13 13 14 15 17 17
27 28 28 29 29 29 29 28 29 29 29 27 29 29 30 27 22 21 21 22 22 21 20 19 19 18 18 17 18 18 18 18 17 17 18 18 16 14 14 14 14 13 13 13 12 13 14 16 17
25 27 28 28 28 30 29 28 28 29 27 29 29 28 29 24 21 22 21 21 21 21 20 20 19 19 19 18 17 17 18 17 17 17 17 17 15 14 14 14 14 13 13 12 12 12 14 16 16
26 27 28 30 30 29 29 28 28 28 28 29 30 30 29 27 23 23 24 24 22 21 20 20 19 19 19 19 19 17 17 16 16 16 16 16 15 15 15 14 14 13 13 12 11 13 16 15 14
26 26 29 29 28 28 27 27 28 27 27 29 30 31 30 29 27 25 25 25 25 23 21 19 19 19 19 19 18 18 16 16 16 17 16 15 15 15 14 14 13 12 12 12 11 14 14 13 13
24 26 26 27 27 25 25 27 26 26 27 29 29 29 29 28 28 28 27 26 25 25 24 21 19 18 18 18 18 18 17 16 16 17 17 15 15 14 13 13 13 13 12 12 12 13 13 14 14
24 25 26 26 26 25 24 25 26 26 28 29 29 29 28 28 27 27 26 26 24 24 23 22 20 18 18 17 18 17 17 17 17 17 16 15 14 14 13 13 13 13 12 12 11 12 13 13 13
26 24 25 25 25 25 23 25 26 27 29 28 28 28 29 29 28 27 26 26 25 23 23 22 21 18 18 17 17 17 17 17 17 16 15 14 14 13 13 13 13 12 12 11 11 11 12 12 13
23 22 25 26 27 25 24 23 24 28 28 27 27 28 29 29 29 28 27 27 26 24 22 21 21 19 18 17 17 17 17 17 17 16 15 13 13 13 13 13 12 12 11 11 11 11 11 11 11
23 24 23 27 24 24 23 24 27 27 26 26 27 28 28 28 28 28 27 26 26 24 23 22 20 19 18 17 17 16 17 16 16 16 15 13 13 13 13 12 12 12 11 11 11 11 10 10 10
25 23 25 25 27 24 22 23 26 26 25 25 26 26 26 27 27 27 25 24 23 23 23 23 21 19 18 17 17 16 16 16 15 15 15 14 12 12 12 12 12 11 11 10 10 10 11 10 10
25 25 26 25 26 25 24 24 25 26 26 26 26 27 27 26 26 23 21 20 20 20 20 20 20 19 18 16 16 16 16 15 15 15 14 14 12 11 12 12 11 11 10 10 10 10 10 10 10
24 23 24 24 25 24 24 23 24 25 26 26 27 27 27 25 23 20 18 16 16 15 15 16 17 18 17 16 16 15 15 15 14 14 14 13 12 11 11 11 11 10 10 10 10 10 10 10 9
22 22 22 24 25 23 23 22 23 24 25 26 26 26 25 24 21 18 16 14 13 12 12 13 14 15 16 15 15 15 15 15 14 14 13 13 12 11 10 10 10 10 9 9 9 9 9 9 9
22 22 22 22 22 22 22 22 25 25 27 26 26 23 21 19 18 16 14 13 11 11 10 11 12 13 13 14 14 13 13 12 13 13 12 11 11 10 10 9 10 9 10 9 9 9 9 9 8
20 23 20 20 20 21 21 20 23 25 26 25 23 20 19 16 15 14 13 11 10 10 9 10 10 10 11 11 12 12 13 12 13 12 11 10 9 9 9 9 9 9 9 9 9 9 9 9 8
21 19 20 19 19 20 21 21 23 25 24 23 19 17 15 14 13 13 12 10 9 9 8 9 9 9 9 9 10 10 11 11 12 12 10 10 9 8 8 8 8 8 8 9 9 8 8 9 9
19 19 20 20 19 19 22 22 23 24 23 21 18 16 15 14 13 12 11 10 9 8 8 8 8 7 7 8 8 8 9 9 10 10 9 9 8 7 7 7 7 8 8 8 8 8 8 9 9
17 19 19 19 20 20 22 20 22 23 22 21 17 14 14 13 12 11 11 10 9 8 8 7 7 7 7 6 7 7 7 7 8 9 9 9 9 8 7 6 6 6 7 7 7 7 7 8 8
20 20 18 17 18 20 20 20 21 23 18 16 15 14 12 12 11 10 10 9 9 8 7 7 6 6 6 6 5 5 5 6 6 7 7 7 8 8 8 7 6 6 6 6 6 6 6 7 7
20 17 19 16 16 16 18 20 23 22 17 15 14 13 11 11 10 10 9 8 8 7 7 6 6 5 5 5 4 4 4 4 4 4 5 5 6 6 6 6 6 5 5 5 6 5 6 6 6
17 17 17 17 14 15 18 19 21 21 18 15 13 11 10 10 10 10 9 8 7 6 6 5 5 4 4 4 3 4 3 3 3 3 3 3 3 4 4 5 5 4 4 4 4 5 5 5 5
17 16 17 17 16 14 15 17 17 16 15 12 10 9 9 9 8 8 8 7 6 6 5 5 4 3 3 3 2 3 2 2 2 2 2 2 2 2 2 3 3 3 4 4 4 4 4 4 4
16 15 16 14 14 15 14 14 16 13 11 10 9 8 8 7 7 8 7 6 6 5 5 4 4 3 2 1 2 2 1 1 1 1 1 1 1 2 1 1 1 2 2 3 3 3 3 3 4

GFSSGP_925_temp_024.txt.gz
Temp
24 25 25 26 24 25 27 27 30 28 28 28 29 27 26 27 28 25 24 25 25 23 22 21 21 20 19 19 19 19 19 19 19 19 18 18 18 18 18 19 18 18 17 17 18 16 16 16 18
24 25 26 24 24 26 26 29 27 28 28 28 28 28 27 28 29 24 24 24 24 23 22 21 20 20 19 19 18 19 19 19 19 19 19 18 18 18 18 18 18 17 16 17 17 18 17 18 18
24 25 24 25 26 26 27 29 29 29 28 28 28 29 28 28 28 27 24 23 23 23 21 21 20 20 19 19 18 19 19 19 19 19 19 18 18 18 17 17 17 16 16 17 17 17 17 18 18
24 26 25 25 27 29 29 28 28 28 27 28 28 26 28 29 28 25 24 23 23 22 22 20 20 20 19 19 19 19 19 19 19 19 19 18 17 17 17 17 16 16 16 16 16 17 18 18 19
25 25 24 26 28 30 30 29 29 28 29 29 28 28 27 27 26 24 23 22 23 22 22 20 20 19 19 19 19 19 19 19 19 18 18 18 17 17 16 15 15 15 15 16 16 17 18 18 19
24 25 25 25 27 29 29 28 28 28 29 27 27 26 28 26 25 24 23 22 22 22 21 21 20 19 19 19 19 19 19 19 19 18 18 17 17 17 16 14 14 14 14 14 14 17 18 18 18
25 25 24 26 26 29 29 29 28 28 27 28 28 27 27 25 25 24 23 23 22 22 21 20 20 19 19 19 19 18 18 19 18 18 18 17 17 17 16 14 14 14 14 14 14 17 18 18 18
23 25 26 27 27 27 27 28 28 27 27 28 28 25 27 24 24 23 22 23 23 22 21 20 20 19 18 18 18 18 18 18 18 18 17 17 17 17 15 14 14 14 14 13 13 15 17 17 17
25 23 24 26 28 28 26 27 27 28 26 25 26 26 27 25 24 22 22 21 22 22 21 20 19 19 19 18 18 18 18 18 18 17 17 17 17 16 15 14 14 14 13 13 13 14 16 17 16
23 22 25 27 27 26 26 26 25 26 25 24 25 27 29 27 24 22 22 22 21 21 21 20 19 19 18 18 17 18 18 17 17 17 17 17 17 16 15 14 14 14 13 13 12 14 16 16 15
24 22 25 25 26 24 24 24 25 24 23 24 24 24 25 27 26 23 24 24 24 23 21 20 20 19 19 18 18 18 17 17 17 17 17 17 16 16 15 14 14 13 13 13 12 14 15 14 13
23 24 24 24 25 25 24 23 22 23 23 24 24 25 24 24 24 25 25 25 25 25 23 21 20 19 19 19 19 18 17 17 17 16 16 17 16 15 15 15 14 13 13 13 13 14 14 13 14
24 23 24 24 24 23 24 22 21 22 24 24 25 25 24 24 25 27 27 27 26 25 25 23 21 20 19 18 18 18 18 17 17 16 16 16 16 15 15 14 14 13 13 13 13 13 13 14 14
24 22 22 23 23 23 23 22 23 23 23 24 24 24 24 24 25 27 27 26 26 25 24 24 23 21 19 18 18 18 18 17 16 16 17 16 16 15 14 14 14 13 13 13 12 13 13 13 13
22 21 21 23 24 23 23 21 21 23 24 24 24 23 24 24 26 26 27 26 25 25 25 23 23 21 19 18 18 17 17 17 17 17 17 16 15 15 14 14 13 13 13 12 12 12 12 12 12
21 21 20 24 24 21 22 20 23 24 22 22 23 23 23 23 24 20 19 20 20 21 23 23 22 21 20 18 18 17 17 17 17 17 16 16 15 14 14 13 13 13 13 12 12 11 11 11 12
20 20 21 22 25 21 21 20 23 23 22 22 23 22 22 22 18 17 16 15 16 17 18 20 21 21 20 19 18 17 17 17 17 16 16 15 14 14 13 13 13 13 12 12 12 11 11 11 11
21 21 22 21 23 22 21 19 22 22 22 22 22 22 22 18 16 15 13 13 12 13 15 16 17 19 19 18 17 17 17 16 16 16 16 15 14 13 13 13 13 12 12 12 11 11 11 11 11
20 20 20 21 22 21 20 20 21 21 22 22 21 22 18 17 15 14 12 11 10 11 11 12 14 16 17 17 16 16 16 16 15 15 15 15 14 13 12 12 12 12 12 12 11 10 11 10 10
20 19 19 21 22 21 20 19 20 21 21 21 22 18 17 15 14 13 11 10 9 9 10 10 11 13 14 15 15 15 15 15 15 14 14 14 14 13 12 12 11 11 11 11 11 10 10 10 10
20 19 19 19 19 20 19 18 19 22 22 19 18 16 14 13 12 11 10 9 8 8 9 9 9 10 11 12 13 13 14 13 14 13 13 13 13 12 11 11 11 11 10 10 10 10 11 10 9
18 20 20 19 18 17 19 17 21 20 21 17 16 13 12 12 11 10 9 8 8 8 8 8 8 8 9 10 11 11 11 11 12 12 12 12 11 11 11 10 10 10 10 10 10 10 10 10 9
20 17 18 18 17 16 17 16 20 21 18 15 14 12 11 11 10 9 9 8 8 8 7 7 7 7 7 8 8 9 9 9 10 10 10 10 10 9 9 9 9 9 9 9 9 9 9 9 9
17 18 17 16 16 14 18 19 19 20 18 16 14 12 12 10 9 9 9 8 7 7 7 6 6 6 6 6 6 6 7 8 8 8 9 9 9 8 8 8 7 8 8 8 8 8 9 9 9
17 17 14 14 13 14 17 17 19 20 18 16 14 11 10 9 8 8 7 8 7 7 7 6 5 5 5 5 5 5 5 5 6 6 6 7 7 8 8 8 7 7 7 7 8 8 8 8 9
17 18 13 13 13 15 16 14 17 18 15 14 12 10 9 8 8 7 7 8 7 7 6 5 5 4 4 4 4 4 4 4 4 4 4 5 5 5 6 6 7 7 6 6 7 7 7 7 8
17 16 17 14 10 11 15 17 19 15 13 12 11 9 8 8 8 8 7 7 7 6 5 5 4 3 3 3 3 3 3 3 3 3 3 3 3 3 4 5 5 5 5 5 5 6 6 6 6
16 16 14 14 13 11 14 15 16 14 13 12 10 8 8 8 8 7 7 7 6 6 5 4 3 3 2 2 2 2 2 2 2 3 2 3 3 3 3 3 3 4 4 4 4 4 5 5 5
14 15 15 15 13 12 13 14 14 12 12 9 8 8 8 8 7 7 7 6 6 5 5 4 3 2 2 2 2 2 2 2 2 2 2 2 2 2 2 2 2 2 2 3 3 3 4 4 4
14 14 14 12 12 12 13 13 12 10 9 9 9 9 8 7 7 6 6 6 5 4 4 4 3 2 1 1 1 1 1 2 2 2 1 1 1 2 2 2 2 1 1 2 2 2 3 3 3

GFSSGP_925_temp_027.txt.gz
Temp
24 25 24 24 21 19 22 26 25 25 26 26 27 26 25 25 26 23 24 24 24 23 22 21 21 21 20 20 20 19 19 19 19 19 19 18 19 19 19 19 19 18 18 17 18 17 17 19 18
24 25 25 19 20 20 22 25 25 26 27 27 26 26 26 27 25 22 23 24 23 23 22 22 21 21 20 19 20 19 19 19 19 19 18 19 18 19 19 18 18 18 17 17 18 18 18 19 18
24 24 20 19 19 22 23 25 25 25 25 26 26 27 26 26 24 23 24 24 23 23 22 22 21 20 19 19 19 19 19 19 19 19 18 19 18 18 18 18 17 17 16 17 17 18 18 19 19
24 23 19 21 24 26 27 25 26 26 26 26 26 25 26 27 26 25 24 24 23 22 22 21 20 19 19 19 19 19 19 19 19 19 19 18 17 18 18 17 17 16 16 16 17 18 18 18 19
23 18 20 22 24 27 25 26 27 27 26 25 26 26 24 24 25 25 24 24 23 22 21 21 21 19 19 19 19 19 19 19 19 19 19 18 17 17 17 17 16 15 15 15 16 17 18 19 19
19 18 20 21 24 26 25 26 27 26 26 25 25 25 25 24 24 24 23 23 23 22 21 20 20 20 19 19 19 19 19 19 19 19 18 18 18 17 17 17 15 15 14 15 15 17 18 18 18
22 19 21 24 25 25 26 26 26 25 24 26 26 25 24 23 24 24 23 22 22 22 22 21 20 20 19 19 19 19 18 19 19 18 18 18 17 17 16 17 14 14 14 14 16 17 18 18 18
19 19 23 23 24 26 25 26 26 26 25 26 26 24 25 24 24 24 23 22 22 22 22 21 20 19 19 19 18 18 18 18 18 18 18 18 17 16 16 16 14 14 14 13 14 16 18 18 17
22 18 20 24 24 25 25 26 25 25 25 24 26 25 25 25 24 23 22 22 22 22 21 21 21 19 19 18 18 18 18 18 18 18 17 17 17 16 16 16 14 13 13 13 13 16 17 17 17
19 17 22 24 24 23 23 23 22 23 22 22 22 23 25 24 22 21 21 21 22 22 21 21 20 20 19 18 18 18 18 18 18 18 17 16 17 16 17 16 15 14 13 13 13 15 17 16 16
21 19 22 23 23 23 23 22 22 22 21 22 21 22 22 24 22 21 21 22 23 24 23 21 20 20 19 18 18 18 18 17 17 17 17 16 16 16 16 16 15 14 13 13 12 14 16 15 15
22 21 23 22 23 22 23 23 20 21 21 21 20 20 21 21 21 21 21 24 24 24 24 23 21 20 19 19 18 18 18 17 17 17 17 16 16 16 15 15 15 14 14 13 14 15 15 15 14
22 22 22 21 20 20 21 21 21 20 21 19 20 21 20 20 22 25 25 25 26 25 25 24 22 21 20 19 18 18 18 18 17 17 17 16 16 16 15 15 15 15 14 14 14 14 14 14 14
21 20 20 20 21 20 21 20 22 20 20 20 21 20 20 20 19 18 18 18 20 21 23 24 23 21 20 19 19 18 18 18 17 17 17 17 16 16 15 14 15 14 14 14 14 14 14 14 14
21 21 19 19 20 20 20 21 20 20 19 20 20 19 20 17 15 14 14 14 15 17 19 21 23 22 20 20 19 18 18 17 17 17 17 16 16 16 16 15 14 14 14 13 13 13 13 13 13
20 20 18 21 22 21 22 19 21 20 20 20 20 18 18 14 13 12 12 12 14 16 17 19 20 21 20 19 19 18 17 17 17 17 16 16 16 16 16 15 14 14 13 13 13 12 12 13 13
18 18 18 20 21 20 21 19 20 20 19 19 18 18 14 13 11 10 10 10 11 12 14 16 18 19 18 19 18 18 17 17 17 17 16 17 16 16 15 14 14 14 13 13 12 12 12 12 11
18 18 19 19 21 20 19 17 18 18 19 20 18 13 12 11 10 10 9 9 10 10 11 13 15 17 17 17 17 17 16 16 16 16 16 16 16 15 14 14 14 13 13 12 12 12 11 12 11
19 19 18 18 19 19 18 17 18 19 18 18 15 13 12 11 10 9 8 8 8 9 9 10 12 13 15 15 16 16 16 15 16 16 16 15 15 14 14 13 13 13 13 12 12 11 11 10 10
18 18 17 17 19 20 18 17 18 19 18 18 14 12 11 10 9 8 7 7 7 7 7 9 10 11 12 13 13 13 14 13 14 14 15 15 14 14 13 13 12 12 12 12 11 11 10 10 10
18 18 17 17 18 18 17 16 18 19 15 14 12 11 10 9 8 8 7 6 6 6 6 6 7 8 9 10 12 12 12 13 12 12 13 14 13 13 12 12 12 11 11 11 11 11 10 10 9
17 18 18 19 17 15 17 14 18 18 14 12 11 9 8 8 8 7 7 6 6 6 7 7 6 7 7 8 9 8 8 8 9 9 10 11 11 11 11 11 11 11 10 10 11 11 10 10 9
17 17 18 18 16 15 16 13 14 14 13 12 10 9 8 7 7 6 6 6 6 6 6 6 6 6 6 6 7 7 7 7 7 8 9 9 9 9 9 9 10 9 9 9 10 9 9 9 10
17 17 16 15 13 12 15 15 15 17 14 12 10 9 8 7 6 6 7 7 6 6 6 6 5 5 5 5 5 5 5 5 6 6 6 6 7 7 7 8 8 8 8 8 8 8 9 9 9
16 14 13 12 11 12 14 14 16 17 14 12 9 7 6 6 5 5 5 6 6 5 5 5 5 4 4 4 4 4 4 4 4 4 4 4 4 5 5 5 6 6 7 7 7 7 7 8 8
15 15 12 11 12 12 14 13 15 11 10 9 8 7 7 6 6 5 5 6 5 5 5 4 4 3 4 3 3 4 4 3 3 3 3 3 3 3 3 4 5 5 5 6 6 6 6 6 7
16 15 15 13 6 9 12 14 12 10 9 8 8 7 6 6 5 5 5 6 5 5 4 4 4 4 3 3 3 2 2 3 2 2 3 3 3 3 3 4 4 4 4 4 5 5 5 5 5
15 15 13 11 9 8 12 13 13 10 9 8 7 7 7 6 6 5 5 5 5 4 4 4 3 3 3 3 3 3 3 2 2 2 2 2 2 2 2 3 3 3 3 3 3 3 3 3 4
14 13 14 13 11 10 9 12 12 11 9 7 7 6 6 6 6 5 5 5 4 4 3 3 3 3 2 2 2 2 2 2 2 2 2 2 2 2 1 1 2 2 2 2 2 2 2 2 2
13 13 13 10 11 9 11 13 11 9 8 8 7 7 6 6 5 4 5 4 4 4 3 3 2 2 2 2 2 1 1 1 1 1 1 1 1 2 2 2 1 1 1 2 2 2 2 1 1

GFSSGP_925_temp_030.txt.gz
Temp
24 24 24 23 21 18 21 25 24 25 25 25 25 25 25 25 25 22 23 24 23 23 21 21 21 20 20 20 20 20 20 20 19 19 19 19 19 19 19 19 18 18 17 17 18 18 19 18 19
24 24 24 17 19 20 21 23 25 26 26 25 25 25 25 25 24 22 22 23 23 23 21 20 20 20 20 20 20 20 20 20 19 19 19 19 19 19 18 19 18 18 17 17 17 19 18 19 18
24 23 19 18 17 20 22 24 25 25 25 25 25 25 25 26 23 23 24 23 23 22 22 21 20 20 20 20 20 20 19 19 19 19 18 19 19 19 18 18 18 17 17 17 18 18 18 18 19
23 21 17 20 24 25 24 24 24 25 25 25 24 25 24 25 25 25 24 23 23 22 22 21 21 20 20 19 19 19 19 19 19 19 18 18 18 18 18 18 17 16 16 16 16 17 18 18 19
22 16 18 21 22 25 24 24 26 26 25 25 24 26 24 23 24 24 24 23 23 22 22 21 21 20 19 19 19 19 19 19 19 19 19 18 18 18 18 17 17 16 15 15 15 17 18 18 19
19 16 19 21 23 24 24 25 25 25 23 24 25 24 24 23 24 24 23 23 22 22 21 21 21 20 18 18 18 19 19 19 19 19 18 18 18 18 17 17 16 15 15 14 15 17 18 18 18
20 17 20 22 23 25 25 25 24 24 24 25 24 25 24 22 24 24 23 23 22 22 21 20 20 20 19 18 18 19 19 19 19 18 18 18 18 17 17 17 16 15 14 14 14 16 18 18 18
16 17 22 21 21 25 23 24 25 25 25 24 24 23 24 24 24 23 22 22 22 22 21 21 20 20 19 19 18 18 18 18 18 18 18 18 17 17 17 17 17 15 14 14 14 16 18 17 17
18 17 19 23 23 23 22 23 23 22 24 22 24 24 24 24 23 22 22 22 22 21 21 21 21 20 19 19 18 18 18 18 18 18 18 17 17 17 16 17 16 16 14 13 14 15 17 17 17
18 16 20 22 23 23 23 23 22 22 20 21 21 22 24 23 22 21 20 21 21 22 22 21 21 20 19 18 18 18 18 18 18 18 17 17 17 16 16 16 16 16 14 14 14 14 16 16 16
19 19 20 22 22 22 22 21 21 22 21 20 21 20 21 21 20 20 21 21 22 23 22 22 21 21 20 19 19 18 18 18 18 18 18 17 17 16 16 16 16 15 14 13 13 13 16 16 16
21 20 21 22 22 21 22 22 20 21 21 21 19 18 19 18 18 18 19 21 20 20 21 22 22 21 20 20 19 19 17 17 17 17 17 17 17 16 16 15 15 15 15 14 13 14 15 15 15
20 21 21 21 19 19 21 20 20 19 19 18 18 19 18 17 16 15 15 16 17 19 20 21 20 21 20 20 19 18 18 17 17 17 17 17 17 16 16 15 15 15 14 14 14 14 14 15 15
20 20 19 19 19 20 20 20 20 20 20 19 20 17 14 12 12 12 12 12 14 15 18 20 21 21 20 20 19 18 18 18 17 17 17 17 17 16 16 15 14 14 14 14 14 14 14 14 14
20 20 18 19 20 20 18 21 19 19 18 18 18 15 12 11 10 9 10 10 11 13 15 17 20 19 19 20 19 18 18 17 17 17 17 17 17 17 16 16 15 14 14 14 13 12 12 13 13
20 19 18 21 21 21 21 19 20 20 19 19 15 11 10 9 9 8 9 9 10 12 14 15 17 19 18 18 18 18 17 17 17 17 16 16 16 17 16 16 15 15 14 14 13 12 12 12 12
16 17 17 19 20 21 20 18 19 19 18 16 14 10 10 9 8 7 7 8 9 10 12 14 15 17 17 17 17 17 17 16 16 16 17 16 16 16 16 16 15 15 14 13 13 12 12 12 12
17 17 17 18 20 20 18 17 17 17 17 16 10 9 9 8 7 7 7 7 8 9 10 11 12 14 15 16 16 16 16 16 16 16 16 16 16 15 15 15 15 14 14 13 12 12 12 11 12
18 18 17 17 18 18 17 17 17 17 17 13 10 9 9 8 7 7 6 6 7 7 8 9 11 11 13 14 14 14 13 14 14 14 14 14 14 14 14 14 14 13 13 13 13 12 11 11 11
16 16 16 16 17 18 17 17 17 16 14 12 10 9 8 7 6 6 6 6 5 6 6 7 8 9 11 11 11 11 11 11 11 11 12 12 12 12 13 13 13 12 12 12 11 11 11 10 10
16 16 17 17 16 17 16 15 16 12 11 11 9 8 7 6 6 5 5 5 5 5 5 5 6 7 8 10 11 12 11 11 11 10 10 10 10 10 10 10 10 11 11 11 11 10 10 10 10
16 16 16 16 16 15 16 13 15 15 11 9 8 6 6 5 5 5 5 4 4 5 6 6 6 6 6 7 7 7 6 5 5 7 8 9 9 9 9 9 8 8 8 8 9 10 9 9 9
17 16 17 17 16 15 14 13 13 12 11 9 7 6 6 5 5 4 4 4 5 5 5 5 6 6 6 6 6 5 5 4 5 6 7 7 7 8 8 8 8 8 7 7 7 8 8 9 8
16 17 13 12 12 12 13 13 14 14 13 9 7 6 6 5 4 5 5 5 5 5 5 5 5 5 5 5 5 5 5 4 4 4 4 4 5 5 6 6 6 7 7 6 6 6 6 7 8
15 14 13 12 10 12 13 12 14 10 12 10 7 6 5 4 4 3 4 4 4 4 5 5 5 4 5 5 5 4 4 3 3 3 3 3 3 3 3 4 5 5 5 5 5 5 5 5 6
14 14 12 11 11 12 12 13 13 8 7 7 6 5 5 5 4 4 4 4 4 4 4 4 4 3 4 4 4 4 4 3 3 2 3 2 2 2 3 3 3 3 4 4 4 4 4 4 4
15 14 14 12 3 8 12 11 10 8 7 6 6 6 5 5 4 4 4 4 4 4 4 4 4 4 3 3 3 3 2 2 2 2 2 2 2 2 2 3 3 3 3 3 3 3 3 3 3
14 14 12 10 9 9 11 11 12 8 7 7 6 6 5 5 4 4 4 4 4 4 4 4 4 4 3 3 3 3 2 2 2 2 1 1 1 2 2 2 2 2 2 3 3 3 3 3 3
13 13 13 12 9 8 7 11 12 10 8 7 7 6 5 5 4 3 4 4 4 4 4 4 3 4 4 4 3 3 2 2 2 2 1 1 1 1 1 0 1 1 1 1 1 2 2 2 2
14 12 12 9 10 8 9 13 11 10 8 7 7 6 5 5 4 3 4 4 4 4 3 3 3 3 2 2 2 2 1 1 1 1 1 1 0 1 0 0 0 0 0 0 -0 -0 1 1 1

GFSSGP_925_temp_033.txt.gz
Temp
23 24 24 22 21 18 21 24 23 25 25 24 24 24 24 24 24 22 23 23 23 22 21 20 19 19 20 20 20 20 20 20 20 20 20 19 19 19 19 19 19 18 17 16 17 16 18 18 19
23 24 23 16 19 19 20 21 24 25 25 24 24 24 24 25 23 22 22 23 23 23 21 20 20 19 19 19 20 20 20 19 19 19 20 19 19 18 18 18 18 18 17 17 16 18 18 18 18
23 23 19 17 16 20 21 23 24 24 23 24 25 24 24 25 23 22 24 23 23 22 22 21 20 19 19 19 19 19 19 19 19 19 19 19 19 19 18 18 17 17 17 17 17 18 18 18 18
23 20 16 19 23 23 23 24 23 24 24 24 23 25 23 23 23 23 24 23 23 22 22 21 20 20 19 19 19 19 19 19 19 19 19 18 18 18 18 18 17 17 16 15 16 17 18 18 18
21 15 18 20 22 22 23 23 22 24 24 24 23 24 23 23 23 24 23 23 23 22 22 21 20 20 19 19 19 19 19 19 19 19 19 19 18 18 18 17 17 16 16 15 15 17 17 18 18
18 15 18 20 22 23 23 23 24 23 23 24 24 23 23 23 23 23 23 23 22 22 21 21 20 20 20 20 19 19 19 19 19 19 18 18 18 18 18 17 17 16 15 14 14 16 17 18 18
18 16 19 21 21 23 23 20 24 23 23 24 24 24 23 23 25 23 23 22 22 21 21 21 20 20 19 18 18 18 18 18 18 19 18 18 18 18 18 17 17 16 15 14 14 16 17 18 17
15 16 21 20 20 24 22 21 23 23 24 21 22 23 24 24 24 23 22 21 21 21 21 21 20 20 19 18 18 18 18 18 18 18 18 18 17 17 17 17 17 17 15 14 14 15 17 17 17
17 17 18 22 22 23 21 22 22 21 22 22 23 23 23 24 23 22 22 22 21 21 21 20 20 20 19 18 18 18 18 18 18 18 18 17 17 17 17 17 17 16 15 14 13 15 17 17 17
17 16 19 20 22 22 21 22 21 22 20 21 22 20 23 23 21 20 19 19 20 20 20 20 20 20 19 19 18 18 18 18 18 18 18 17 17 17 17 16 16 16 15 14 13 13 16 16 16
18 18 19 21 21 21 21 21 20 21 21 19 20 19 18 21 19 18 18 16 16 19 20 20 20 19 19 19 18 18 18 18 18 17 17 18 17 17 16 16 16 15 15 15 14 13 14 15 15
21 20 20 21 20 20 21 21 20 20 21 21 17 16 16 13 12 12 12 13 14 16 17 19 19 19 19 19 19 18 17 17 17 17 17 17 17 17 16 16 16 15 15 14 14 14 14 14 15
20 20 20 19 18 18 19 19 20 19 18 17 17 14 12 10 10 11 11 13 13 14 15 18 19 19 19 19 18 18 18 17 17 17 17 17 17 17 16 16 15 15 14 14 14 14 14 14 14
20 20 18 18 18 19 20 19 19 21 20 17 15 11 9 9 8 9 9 9 11 12 14 15 17 19 18 19 18 18 17 16 16 16 16 16 16 17 17 16 16 15 14 14 14 13 13 13 13
20 19 17 18 19 19 17 20 18 19 17 16 13 9 8 8 7 6 7 7 8 10 12 14 16 17 17 17 17 17 17 17 17 17 17 17 16 16 17 16 15 15 15 15 14 13 13 13 12
19 18 17 20 19 20 20 19 20 19 17 16 10 8 8 7 7 6 6 7 8 10 11 12 14 15 15 15 16 16 16 16 16 17 17 16 16 16 16 16 16 15 14 14 14 13 13 12 12
15 17 17 18 19 20 20 19 19 18 17 13 8 7 7 7 6 6 6 6 7 9 10 12 13 13 13 14 14 14 14 14 14 15 15 15 16 15 15 15 15 15 14 13 13 12 12 12 12
16 16 16 17 19 19 18 17 17 16 17 11 8 7 6 6 6 5 5 6 7 8 9 10 12 14 14 13 13 13 13 12 13 13 13 13 14 14 14 14 14 14 13 12 12 12 12 11 11
18 16 17 17 17 18 16 16 16 15 11 8 7 7 6 6 6 5 5 5 6 8 9 9 11 11 14 15 13 12 11 11 11 11 11 12 12 12 12 12 12 12 12 11 11 11 10 10 10
16 16 15 15 16 17 16 16 16 10 9 8 7 6 6 5 5 5 4 5 5 5 5 7 8 10 10 11 10 9 9 8 8 9 9 10 10 10 10 10 10 9 9 9 9 10 9 9 9
15 15 15 16 16 16 16 15 16 10 8 8 7 6 5 5 4 4 4 4 4 5 6 7 8 8 9 10 10 10 10 10 9 8 8 7 8 8 8 8 8 9 9 8 8 7 7 7 8
16 15 16 16 15 15 15 13 14 11 8 7 6 5 4 4 4 4 3 3 4 4 5 6 7 8 8 9 9 8 6 4 4 5 6 6 7 7 7 7 7 6 7 7 7 7 7 6 7
16 15 15 16 15 14 14 13 12 9 9 7 5 5 4 4 3 3 3 3 4 5 5 5 6 6 6 7 7 6 5 4 4 5 6 5 5 5 5 6 6 6 6 5 5 6 6 6 6
15 15 12 10 12 11 13 13 13 12 12 7 6 5 4 4 3 3 4 4 3 4 4 5 5 4 5 5 5 5 4 4 4 4 4 4 4 3 3 4 4 4 5 5 5 5 5 5 5
14 14 13 12 10 12 12 12 13 9 8 9 6 5 4 4 3 3 3 3 3 4 4 4 5 4 4 5 4 4 4 3 3 2 2 3 3 3 3 3 3 3 3 4 4 3 3 3 3
13 14 12 12 10 12 12 12 13 7 6 7 6 5 4 3 3 3 3 3 3 4 4 4 4 3 4 4 4 3 3 3 3 2 2 2 2 2 2 3 3 3 3 2 3 3 3 3 3
13 13 13 11 1 7 12 12 9 7 6 5 5 4 4 3 3 2 3 3 4 4 4 4 4 3 3 3 3 3 3 3 2 2 2 1 1 1 2 2 2 3 3 2 2 2 2 2 2
14 12 12 9 10 8 11 11 12 7 6 5 5 5 4 4 3 2 3 3 4 4 3 3 3 3 3 3 3 2 2 2 1 1 1 1 1 1 1 1 1 1 1 1 1 1 1 1 2
12 12 12 11 9 9 8 11 10 9 8 6 5 5 5 4 3 3 3 4 4 4 3 3 3 3 3 3 3 2 2 2 1 1 1 1 0 0 0 0 0 0 0 0 -0 -0 0 -0 0
12 12 12 12 11 7 9 14 8 9 8 7 6 6 5 4 4 3 3 3 3 3 3 4 4 3 3 3 3 2 2 1 1 1 0 0 0 0 -0 -0 -0 -0 -1 -1 -2 -3 -2 -3 -3

GFSSGP_925_temp_036.txt.gz
Temp
23 23 23 22 20 17 20 23 22 24 24 23 23 23 24 23 23 22 23 23 22 22 21 20 19 19 19 19 20 20 20 20 20 20 20 19 19 19 19 18 18 18 17 16 16 17 18 18 18
23 23 22 15 18 18 19 21 24 24 23 23 23 23 24 24 22 22 23 23 22 22 21 21 20 20 20 20 20 20 20 20 20 19 19 19 19 19 18 18 18 17 16 16 16 18 18 18 18
23 23 19 16 15 19 20 22 23 23 22 23 24 23 23 24 23 22 23 23 22 22 21 21 20 20 20 20 20 20 20 19 19 19 19 19 19 18 18 18 17 17 17 16 16 17 18 18 18
23 20 15 18 23 22 22 23 22 23 23 22 22 24 22 23 22 23 23 23 22 22 21 21 20 19 20 20 20 19 19 19 19 19 19 19 19 18 18 18 17 17 17 16 15 17 17 18 18
21 15 17 19 21 21 21 22 22 23 23 23 22 24 23 22 22 23 23 22 22 21 21 20 20 19 19 19 19 19 19 19 19 19 19 18 18 19 18 18 17 17 16 15 15 16 17 18 18
17 15 18 19 21 21 21 20 22 22 22 23 23 23 23 23 23 23 22 22 22 22 21 21 20 19 19 19 19 19 19 19 18 18 18 18 18 18 18 18 17 17 16 15 14 15 17 17 18
17 16 18 20 21 22 22 18 22 23 22 24 22 23 23 23 23 23 23 22 22 21 21 20 20 19 19 18 18 18 18 18 18 18 18 18 18 18 18 18 17 17 16 15 14 15 16 17 17
14 15 20 20 20 23 22 21 22 23 24 21 22 22 23 22 21 22 22 21 21 20 20 19 19 19 18 18 17 17 17 18 18 18 18 18 17 17 17 17 17 17 16 15 14 14 15 17 17
16 16 18 21 20 23 21 22 21 19 21 20 21 22 21 21 21 21 21 20 19 19 19 19 19 19 18 18 17 17 17 18 18 18 18 17 17 17 17 17 16 16 16 15 14 14 15 17 16
16 16 19 20 21 22 21 21 20 22 19 21 21 19 19 19 18 16 14 14 16 18 18 18 18 18 18 18 18 17 17 18 18 18 18 18 17 16 17 16 16 16 15 15 14 13 15 16 16
17 18 19 21 20 20 20 20 20 20 21 20 20 16 14 13 12 11 11 11 11 13 16 17 18 17 17 17 17 17 17 18 18 17 17 17 17 17 17 17 16 16 15 15 14 14 14 15 15
20 19 19 21 20 20 20 20 20 19 20 16 15 13 11 9 9 9 9 10 11 13 14 16 17 17 17 17 18 17 16 17 17 18 17 17 17 17 16 17 16 15 15 15 14 14 14 14 14
19 20 19 19 18 18 18 19 19 19 16 14 12 9 8 7 8 8 9 10 10 11 13 15 16 17 18 16 17 17 16 16 16 17 17 17 17 16 17 16 16 15 15 15 15 14 13 13 14
19 19 17 17 19 18 19 19 19 16 15 13 10 8 7 6 6 6 7 7 9 11 13 14 15 16 18 16 15 16 16 16 16 16 16 16 16 16 16 16 16 16 15 15 15 14 13 13 13
18 19 17 18 19 19 16 20 18 18 14 11 8 7 6 6 6 5 5 6 7 9 11 13 14 15 15 15 15 15 15 15 15 15 15 16 15 16 16 16 16 16 15 14 14 14 14 14 13
18 16 17 19 18 18 19 19 20 16 15 10 7 6 6 6 5 5 5 6 7 9 10 11 12 13 13 13 14 14 14 14 14 14 14 14 14 14 15 15 15 15 14 14 14 14 13 13 13
14 17 16 17 18 19 19 18 19 15 12 8 6 6 6 5 5 5 5 6 7 8 10 11 12 12 12 13 13 13 13 13 12 13 13 13 13 13 13 13 13 13 13 13 13 12 11 12 12
16 16 16 16 19 18 18 17 16 13 12 7 5 5 5 5 4 4 5 6 7 8 10 10 11 12 12 12 12 12 12 12 12 12 12 12 12 12 12 11 11 11 11 10 10 10 10 9 10
16 16 17 16 17 18 16 15 16 11 7 6 6 5 5 4 5 4 5 6 7 9 10 11 12 12 13 13 11 11 9 9 9 10 10 10 11 11 11 10 10 9 9 9 9 9 8 9 8
16 16 15 15 15 15 16 15 12 9 8 7 6 5 5 5 4 4 4 5 5 5 7 9 9 11 11 12 10 10 9 8 8 8 9 9 9 9 9 9 9 9 9 8 8 7 7 7 8
14 14 15 16 16 15 15 14 12 8 7 6 6 5 5 4 4 3 3 4 5 5 7 7 9 9 10 10 11 10 10 9 8 7 7 7 7 8 8 8 7 7 7 7 7 7 6 6 7
15 14 15 15 15 14 14 14 14 9 7 6 5 4 4 4 4 3 3 3 3 4 6 7 8 8 9 10 11 9 6 3 3 4 5 5 5 5 5 6 6 6 6 6 5 5 5 5 5
15 14 13 14 13 14 14 12 12 9 8 6 5 4 3 3 3 2 2 3 3 4 4 5 6 6 6 7 7 6 4 4 4 4 5 5 5 5 4 5 5 5 5 4 4 5 4 4 3
12 13 11 10 11 11 12 13 13 10 11 7 5 4 3 3 2 3 3 3 3 4 4 5 5 5 5 6 5 5 5 4 4 4 4 3 4 4 4 3 3 4 4 4 4 4 4 3 3
14 13 13 12 10 12 11 11 12 11 9 8 6 4 3 3 2 1 2 2 3 3 4 4 4 3 4 4 4 4 4 4 3 3 2 3 3 2 2 3 3 3 2 2 3 3 3 3 3
12 14 12 12 11 11 11 11 13 8 6 6 6 5 3 3 2 2 2 2 3 3 3 3 3 3 3 4 3 3 3 3 2 2 2 1 1 1 1 2 2 2 2 2 2 2 2 2 2
13 13 13 10 1 7 11 12 10 7 6 4 4 3 3 3 2 2 2 3 3 3 3 4 3 3 3 3 2 2 2 2 2 1 1 1 1 1 1 1 1 1 1 1 1 1 1 1 1
14 12 13 10 10 8 11 11 13 8 6 5 4 4 3 3 2 2 2 3 3 3 3 3 3 3 2 2 2 2 2 2 2 1 1 1 1 1 1 1 0 0 -0 -0 -0 0 0 -0 0
12 12 11 11 10 10 8 11 9 10 7 5 5 5 4 3 2 2 3 3 3 3 3 3 3 3 3 2 2 2 2 1 1 1 1 0 0 0 0 0 0 -0 -1 -1 -2 -2 -2 -2 -2
12 12 11 13 11 6 8 13 7 8 7 6 6 5 4 3 3 2 3 3 3 3 3 3 3 3 3 3 2 2 1 1 1 1 0 0 -0 -1 -1 -1 -1 -2 -2 -3 -3 -4 -4 -5 -5

GFSSGP_925_temp_042.txt.gz
Temp
24 24 24 26 29 29 27 26 26 27 27 27 26 27 27 27 27 26 22 21 20 20 19 19 20 20 20 19 19 20 19 19 19 19 19 19 18 19 19 19 18 17 16 16 17 17 18 18 17
23 23 24 27 29 28 27 27 27 27 26 26 26 27 28 27 26 26 25 21 20 20 20 20 20 20 20 19 19 19 19 19 19 19 19 19 19 19 19 18 18 18 17 16 17 18 18 18 17
23 24 28 28 28 28 27 27 27 27 26 27 27 26 27 26 26 25 21 20 20 19 19 19 20 20 19 19 19 19 19 19 19 19 19 19 19 19 18 18 18 17 17 16 17 17 18 18 18
23 26 26 29 27 26 27 27 26 27 26 26 27 28 26 23 23 21 20 20 20 19 19 19 19 19 19 19 19 19 19 19 19 19 19 19 19 18 18 18 18 17 17 16 16 17 17 18 18
23 27 28 27 26 26 26 25 26 27 27 27 26 27 26 23 21 20 20 19 20 19 19 18 19 19 19 19 19 19 19 19 19 19 18 18 18 18 18 18 17 16 16 16 16 17 17 17 18
27 26 28 27 26 26 26 25 26 27 26 26 27 27 25 22 21 19 19 19 19 19 18 18 19 19 19 19 19 19 18 18 19 18 18 18 18 18 18 17 16 16 16 16 16 15 17 17 17
26 27 26 26 26 25 26 25 26 27 27 26 26 27 26 23 19 18 18 18 18 17 17 17 18 18 18 18 19 19 19 18 18 18 18 18 17 17 17 17 17 16 16 16 15 15 16 17 17
24 26 25 25 26 26 25 25 25 26 26 24 25 26 26 20 17 18 18 17 17 17 16 16 17 17 18 18 18 18 18 18 18 18 18 18 17 17 17 17 16 16 16 15 15 15 15 16 16
21 26 26 25 25 26 24 25 24 23 25 25 23 22 17 15 16 18 18 18 17 17 17 17 17 17 17 17 18 18 18 18 18 18 18 18 17 17 17 16 16 16 16 16 15 15 15 15 15
25 26 26 25 25 25 24 25 25 25 25 24 22 17 15 15 16 17 17 17 16 15 15 17 17 17 16 16 17 18 17 18 18 18 17 17 17 17 17 17 16 16 16 16 16 15 15 14 15
22 25 23 23 24 24 24 24 23 25 24 24 23 19 16 16 15 15 14 13 12 12 13 14 16 17 17 16 16 17 17 18 17 18 18 18 17 17 17 17 16 16 16 16 16 16 15 15 14
24 22 22 22 21 22 23 23 23 23 22 18 17 15 15 15 14 13 12 12 11 12 12 12 14 16 16 15 16 17 17 17 18 17 17 17 17 17 17 16 16 16 16 16 15 16 15 14 14
23 22 21 21 20 21 20 22 23 21 17 15 14 14 14 14 12 11 11 11 11 11 10 11 13 14 16 15 15 16 16 17 16 16 16 17 16 17 16 16 16 16 15 15 15 15 15 14 14
22 21 22 22 21 21 21 22 21 18 16 15 15 14 13 12 11 12 11 11 10 9 9 9 11 13 14 15 15 16 15 15 15 15 15 15 15 15 15 15 15 15 14 14 14 13 13 13 13
20 22 23 22 21 22 21 20 21 19 17 15 14 13 12 11 10 10 9 9 8 9 8 10 11 12 12 13 14 15 15 14 14 14 14 14 14 14 14 14 14 13 13 13 13 12 12 12 12
22 21 23 22 20 20 20 24 20 18 18 16 14 13 12 10 10 8 8 8 8 8 9 10 11 12 13 13 14 14 14 14 14 14 14 13 13 13 13 13 13 13 13 12 12 12 12 11 12
21 24 22 23 21 21 21 23 19 17 18 16 15 13 12 12 10 8 7 7 7 7 8 9 10 11 12 12 13 13 12 12 11 11 12 12 12 12 12 11 11 11 11 11 11 11 11 10 11
23 21 20 22 22 20 21 23 19 16 17 16 14 13 12 12 10 7 7 6 7 7 7 9 9 9 10 11 11 10 9 8 8 8 9 9 11 10 10 9 10 10 11 11 10 10 10 10 10
22 22 22 21 20 20 22 23 22 17 15 15 14 13 12 11 8 7 6 6 7 7 8 8 9 8 9 10 9 8 7 6 5 6 7 7 6 7 7 7 7 7 6 6 7 8 8 8 8
20 21 22 20 19 19 21 21 22 16 16 15 14 13 12 10 10 8 7 6 6 6 6 7 7 7 7 7 7 6 5 4 4 5 7 7 8 8 7 6 5 5 5 5 5 6 8 8 7
19 20 22 21 18 17 18 20 21 14 12 12 12 12 12 12 10 9 7 7 6 6 6 7 8 8 7 8 8 7 6 6 5 4 5 6 7 6 6 6 6 5 4 4 4 4 5 7 6
20 19 19 18 19 20 17 21 20 17 13 11 11 11 11 10 9 8 7 7 5 4 4 5 7 9 9 10 8 7 7 5 4 3 3 5 5 6 5 6 5 5 4 4 3 3 3 4 5
20 17 18 18 18 17 18 19 22 14 15 12 11 11 11 11 10 8 7 5 4 4 4 4 6 7 7 8 7 6 4 3 3 2 3 4 4 4 4 4 4 4 3 3 3 3 3 2 3
14 16 15 15 17 17 19 19 22 18 17 16 12 11 11 9 9 7 5 4 4 3 3 4 6 6 6 7 6 5 4 3 3 2 2 1 1 2 3 3 3 3 3 3 3 3 3 2 1
16 18 18 17 16 17 14 16 22 20 15 15 12 11 10 9 8 7 6 5 4 3 3 3 4 4 5 6 5 4 3 3 2 2 2 2 1 2 3 3 3 2 2 3 3 3 2 2 1
15 19 18 17 16 18 12 16 19 14 11 11 13 11 10 9 8 7 6 5 4 3 3 3 3 3 3 4 4 3 3 2 2 2 1 1 1 1 1 1 1 1 2 2 1 1 1 1 -0
15 16 17 13 7 15 19 17 17 10 10 9 10 10 9 8 8 7 6 5 4 3 3 3 3 2 2 3 2 3 3 3 2 2 1 0 0 1 1 1 1 1 1 1 1 0 -0 -1 -2
16 17 15 16 16 17 17 16 21 13 13 10 9 9 9 9 8 7 6 5 4 4 3 2 2 2 2 2 2 2 2 2 2 1 1 1 1 0 0 0 1 0 0 0 -1 -2 -3 -3 -4
14 15 15 17 16 17 18 19 18 18 15 11 11 10 10 9 8 8 6 5 4 3 3 2 2 1 1 1 1 1 1 1 1 1 0 0 0 0 0 0 -0 -0 -1 -2 -3 -4 -4 -5 -5
16 17 17 18 14 14 15 19 13 14 14 13 12 10 10 9 9 8 7 5 4 3 3 2 2 1 1 0 1 1 1 1 -0 -0 0 0 0 0 -0 -0 -1 -1 -2 -2 -3 -5 -5 -6 -5

GFSSGP_925_temp_045.txt.gz
Temp
23 25 26 28 30 31 29 28 29 29 29 29 29 29 29 29 28 26 24 24 22 23 22 20 20 20 20 20 20 20 20 20 20 19 19 19 18 18 19 18 17 16 16 16 16 17 18 18 18
24 25 27 31 30 30 29 29 28 29 29 29 29 29 30 27 28 27 26 23 22 23 22 21 19 20 19 20 20 20 20 20 19 19 19 18 18 19 19 18 17 16 16 15 15 17 18 18 17
23 25 30 31 31 30 29 29 29 29 29 29 29 29 29 27 27 26 23 22 22 22 22 21 20 19 19 19 19 19 19 19 19 19 18 18 18 18 18 18 17 17 15 15 15 17 17 18 18
26 29 30 30 30 29 30 30 29 29 29 29 29 28 27 24 25 23 22 22 23 22 22 20 20 19 20 19 19 19 19 19 19 19 18 18 18 18 18 17 17 16 15 15 14 16 17 17 18
27 30 30 30 29 29 29 29 29 29 29 29 29 28 27 24 23 23 22 22 22 22 21 20 20 19 19 19 19 19 19 19 18 18 19 18 18 18 18 17 17 16 16 16 16 17 17 17 17
30 30 30 29 29 29 29 29 29 29 29 29 29 29 25 22 22 22 22 22 22 21 20 20 19 19 19 19 19 19 18 18 18 18 18 18 18 17 17 17 16 16 16 16 16 17 17 17 17
29 29 30 30 29 28 29 28 29 29 29 28 28 28 26 23 21 21 21 21 20 20 20 20 20 19 19 18 18 18 19 18 18 18 18 18 17 17 17 17 16 16 16 16 16 16 17 17 17
28 29 28 29 29 28 28 28 28 29 28 27 27 28 27 21 20 20 20 20 19 18 18 18 18 18 17 19 19 18 18 18 18 18 18 18 17 17 17 17 16 16 16 16 16 15 16 16 17
26 28 29 29 29 29 28 28 27 27 28 27 24 24 20 19 20 21 21 20 19 18 17 16 16 16 17 17 18 18 18 18 18 18 18 18 17 17 17 16 17 16 16 16 16 16 15 16 16
27 28 29 29 29 28 27 28 28 27 27 26 24 21 19 19 20 21 21 20 19 17 17 15 15 16 15 16 17 18 18 18 18 18 17 17 18 17 16 17 17 17 16 17 16 16 15 15 14
26 28 27 27 27 28 27 26 27 27 27 27 26 22 20 19 19 19 19 17 16 16 16 15 14 14 15 15 16 18 18 19 18 18 17 17 17 17 17 16 16 17 16 16 16 15 15 15 14
26 25 26 25 24 25 25 26 26 26 24 22 21 20 19 19 18 17 16 15 15 15 14 14 13 14 14 16 16 17 18 18 18 17 17 17 17 17 17 16 16 16 15 15 15 14 14 13 14
25 25 24 24 23 24 23 25 25 25 21 19 18 18 18 18 17 16 15 15 14 14 13 13 12 13 14 16 16 17 17 16 15 15 16 16 16 16 16 15 15 14 14 14 14 13 14 13 13
25 24 25 24 24 24 23 25 23 25 20 19 19 18 17 16 15 16 14 14 13 12 12 10 10 12 14 16 16 16 16 16 16 16 15 15 15 15 15 15 14 14 14 14 14 13 13 13 13
23 24 26 25 24 24 23 23 22 23 20 19 18 18 16 15 15 14 12 12 11 12 9 10 10 11 13 15 15 15 14 14 14 13 13 13 13 13 14 13 14 13 14 14 13 13 13 12 12
24 24 25 26 23 22 23 25 24 21 20 20 19 18 16 15 14 13 12 11 11 10 9 9 10 11 12 13 13 13 12 12 12 12 12 12 13 13 12 12 11 11 12 12 12 12 12 12 12
24 25 25 25 24 23 22 26 22 21 21 21 20 18 17 15 14 12 11 11 10 8 9 9 10 11 11 12 12 12 11 11 10 10 9 9 10 10 10 10 10 11 11 10 10 9 9 9 9
26 25 25 25 24 22 23 23 22 20 21 21 20 18 17 16 13 11 10 10 10 8 8 9 9 10 11 11 11 11 12 11 9 8 8 8 8 8 9 9 8 8 8 8 8 9 9 9 9
25 25 25 26 24 22 24 25 26 22 20 21 20 18 17 15 12 11 10 10 10 9 8 8 9 10 10 10 10 10 9 7 6 6 6 8 7 8 8 7 7 7 7 7 7 8 9 9 8
23 23 24 25 22 21 23 24 25 25 21 21 20 19 17 14 13 11 10 10 10 10 9 9 10 10 11 10 9 9 7 6 6 5 6 7 8 7 7 6 6 6 6 6 6 6 8 8 7
22 23 24 24 21 20 21 21 22 24 22 19 19 18 17 15 13 12 11 10 10 9 9 9 9 9 9 8 8 7 7 7 6 5 5 5 5 5 6 5 5 5 5 5 5 5 6 7 6
22 24 22 22 21 22 21 21 24 25 19 17 16 16 16 15 14 12 11 10 9 8 8 8 8 8 9 9 9 10 9 7 5 4 4 5 6 5 5 6 5 6 5 5 4 4 4 5 5
22 21 21 21 20 20 21 19 23 23 21 18 15 15 15 14 13 12 11 9 8 7 7 7 7 7 7 7 8 7 6 5 5 3 4 4 5 6 5 4 4 4 4 4 4 4 4 3 3
19 19 18 18 19 18 21 21 22 23 20 20 15 14 14 13 12 11 9 8 7 5 6 6 6 6 6 6 6 6 5 5 4 4 3 3 2 2 2 3 3 3 3 3 3 3 3 2 2
18 19 19 18 17 18 19 21 22 24 19 21 15 14 14 13 12 11 9 8 7 6 6 6 6 5 5 5 5 5 5 5 4 4 3 3 2 1 2 3 3 3 3 3 3 3 2 2 1
17 19 19 17 19 20 14 18 21 20 18 15 16 15 14 12 12 10 9 8 7 6 5 5 5 4 4 4 4 4 4 4 4 3 3 2 2 2 2 3 3 3 3 2 2 1 1 0 -0
17 17 20 16 11 15 20 19 21 14 13 13 15 14 13 12 11 10 9 8 7 5 5 5 5 4 4 3 3 3 3 3 2 2 2 2 2 2 2 2 2 2 1 1 0 0 -0 -1 -2
18 19 16 17 15 17 21 21 22 14 14 13 14 13 12 11 11 10 9 8 7 6 5 5 4 4 3 3 3 3 2 2 2 2 2 2 2 2 1 1 1 0 0 0 -0 -1 -2 -2 -3
15 16 17 18 18 18 20 21 22 21 17 13 13 13 12 11 11 10 9 8 7 6 5 4 4 3 3 2 2 2 2 2 2 2 2 2 1 1 1 0 0 0 -0 -0 -1 -2 -2 -3 -4
19 18 18 17 16 17 17 20 17 19 19 16 13 12 12 12 11 10 9 8 6 6 5 4 4 3 2 2 2 2 1 1 1 1 1 1 0 0 0 0 0 -0 -1 -1 -2 -3 -4 -4 -5

GFSSGP_925_temp_048.txt.gz
Temp
25 26 26 27 25 26 26 26 29 28 26 27 28 26 24 25 25 21 24 23 23 22 21 20 20 20 20 20 20 20 20 19 19 19 19 18 18 18 18 17 16 16 16 15 16 17 18 18 17
25 26 27 25 25 26 26 28 26 26 27 28 29 27 25 24 25 24 23 22 23 22 21 19 19 19 19 20 19 19 19 20 19 19 18 18 18 18 18 17 16 16 15 15 15 17 18 18 17
25 26 25 26 27 26 25 28 26 27 28 29 28 26 25 23 23 24 23 23 23 22 21 21 20 19 19 19 19 19 19 19 19 19 18 18 18 18 18 17 17 16 15 15 16 17 18 18 17
26 27 26 26 27 27 27 27 27 27 28 28 28 23 23 23 23 23 22 23 22 22 22 21 20 19 19 20 19 19 19 19 19 18 18 18 18 18 17 17 17 17 17 17 17 17 17 18 18
26 26 26 28 27 28 27 28 29 28 28 28 29 23 22 23 23 23 22 23 22 22 21 20 20 19 19 19 19 19 19 18 18 18 18 18 18 17 17 16 16 16 16 17 17 17 18 18 18
25 27 26 26 27 28 27 28 29 29 27 28 27 24 21 22 22 22 22 22 22 21 21 20 19 19 18 18 18 18 18 18 18 18 18 18 17 17 17 16 16 16 16 16 16 17 17 17 17
26 25 25 27 26 27 27 28 28 28 28 26 27 24 21 21 21 21 21 20 20 20 20 20 19 19 19 19 18 18 18 18 18 18 18 18 17 17 17 17 17 16 16 16 16 16 16 17 17
23 26 28 28 26 27 26 27 27 27 25 27 24 24 21 20 20 20 20 19 18 19 19 19 19 19 18 18 19 18 18 18 18 18 18 18 17 17 17 17 17 17 17 16 16 16 16 16 16
26 24 25 28 28 27 26 26 27 26 26 23 22 20 19 20 20 21 20 20 19 18 17 17 17 17 16 18 18 18 18 18 18 18 18 17 17 16 16 17 17 17 17 17 16 16 15 15 15
25 24 25 26 27 27 26 26 25 26 25 23 20 19 20 20 21 21 20 19 18 17 16 16 16 16 15 16 17 18 18 18 18 18 18 18 17 17 17 17 17 17 17 17 16 15 14 14 14
26 24 26 26 24 24 26 26 27 26 25 21 22 18 19 19 19 19 18 17 16 16 15 15 15 16 16 16 16 18 18 18 19 18 18 17 17 17 16 16 16 16 16 16 16 15 15 15 15
24 26 26 24 23 25 25 26 25 25 20 19 18 19 19 18 17 16 16 15 15 15 14 13 13 14 15 16 16 18 18 18 17 17 17 16 16 16 16 15 15 15 14 14 14 15 14 14 15
24 25 25 24 23 23 23 24 24 22 18 18 18 19 17 16 17 16 15 14 14 13 12 12 13 14 14 16 17 17 18 16 16 15 15 16 15 15 15 14 15 14 14 14 14 14 13 14 13
23 24 24 23 23 23 22 23 22 23 18 17 18 17 16 15 15 15 14 13 12 12 11 10 11 14 14 15 16 17 16 15 16 15 14 14 15 15 14 14 14 14 14 13 13 13 14 13 13
24 22 23 23 23 23 22 21 20 21 18 18 17 16 15 15 15 14 13 12 12 10 10 10 11 12 13 15 15 15 15 15 16 14 14 14 15 14 14 13 13 12 13 13 12 12 12 12 12
23 23 22 24 22 21 21 21 23 18 18 17 17 15 15 14 14 13 12 12 11 10 11 11 11 12 13 14 14 14 14 14 14 13 12 12 13 13 12 11 11 11 12 12 11 11 11 11 11
22 21 22 22 22 20 19 22 20 19 19 18 17 16 15 13 13 12 11 11 10 10 11 10 11 12 12 12 12 12 12 12 12 11 11 10 10 11 11 10 10 10 10 10 10 10 10 10 11
22 21 23 23 21 21 19 19 20 18 18 18 17 16 15 14 13 12 11 11 10 10 9 9 9 10 10 10 10 10 10 10 10 10 10 10 10 10 10 9 9 9 10 9 9 9 9 9 10
23 22 22 24 21 21 20 20 22 19 18 17 17 16 14 14 12 11 10 10 9 9 8 9 9 9 10 10 9 9 8 8 8 8 8 8 8 8 9 8 7 8 8 8 8 8 8 7 10
21 21 20 22 20 20 20 20 22 20 18 18 18 16 14 11 10 11 10 10 10 9 9 9 10 10 11 10 9 9 8 7 6 6 7 7 8 8 8 8 7 7 8 8 8 7 7 6 7
21 20 20 21 20 20 18 18 19 21 20 19 18 17 15 12 10 9 10 10 10 10 10 10 10 10 10 10 9 8 7 6 6 6 6 6 7 7 8 8 8 7 8 7 7 6 6 6 6
19 22 21 21 20 18 18 17 20 20 20 18 16 15 13 12 11 10 10 10 10 9 9 9 9 9 9 9 9 8 7 5 5 5 5 6 7 7 7 7 7 7 6 6 5 5 5 5 4
20 20 21 20 18 17 18 17 19 20 21 18 15 13 13 11 11 9 9 9 8 8 8 8 8 8 9 9 9 9 7 5 5 5 5 5 5 6 6 7 6 6 5 5 5 5 4 4 3
18 18 18 18 17 14 17 18 18 20 20 20 15 13 12 11 9 9 9 8 7 7 7 7 7 7 8 9 9 8 6 5 4 4 4 5 5 5 5 4 4 4 4 4 3 3 4 3 3
18 17 16 14 14 14 18 17 19 20 20 20 16 14 12 11 10 8 7 7 6 6 6 6 7 6 7 7 7 7 6 6 6 5 5 4 3 3 3 4 4 4 4 4 4 4 3 3 2
15 17 14 15 14 15 14 14 17 15 14 16 15 13 12 10 10 8 7 7 6 6 6 6 6 6 6 6 6 6 6 6 5 5 4 3 3 3 3 4 4 4 4 4 3 3 2 2 1
16 15 19 15 9 11 15 16 19 14 13 14 13 12 12 10 9 8 7 7 6 6 6 6 5 5 6 6 6 5 5 5 4 3 3 3 3 3 3 4 3 3 3 3 2 2 1 1 -0
16 17 14 14 12 13 16 16 18 13 13 11 12 12 12 11 10 8 7 7 6 6 5 5 5 5 5 5 5 5 5 4 3 3 3 3 3 3 3 3 3 3 2 2 1 1 0 -0 -1
14 15 16 16 14 13 14 17 20 19 15 12 13 13 12 11 10 8 8 7 6 6 5 5 5 5 4 4 4 4 3 3 3 3 3 3 3 3 3 2 2 2 2 1 1 0 -0 -1 -1
17 16 16 16 14 14 13 18 17 17 15 13 13 13 12 10 9 8 8 6 6 5 5 5 4 4 4 4 3 3 3 3 3 2 3 3 3 2 2 2 1 1 1 1 0 -0 -1 -1 -2